THOR AGENA D R/B, 733

Orbit data source: Space-Track

THOR AGENA D R/B, 733 is space debris in SSO originally from a launch on Sun, 19 Jan 1964 UTC launched from the Air Force Western Test Range (AFWTR). Debris objects in space refer to the collection of defunct objects orbiting the Earth. Examples of debris include non-operational satellites, rocket bodies, and fragments generated from explosions, collisions, or faulty payload assembly.

Loading next visibility...
THOR AGENA D R/B details
Identifier
733, 1964-002A
Orbit
SSO
Last TLE update18 hours ago
Origin
Flag of USUSAF SSD (US)
ManufacturerLMSC
MissionSpacecraft
Bus & MotorAGENA D, Unknown motor
Mass600 kg wet, 600 kg dry
Launch date (UTC)
1964-01-19 (61 years ago)
Launch vehicleUnknown
Launch site
Air Force Western Test Range (AFWTR)
Object type
Payload
Rocket body
Debris
Shape & HBRCyl + 1 Nozzle, 6.3 m
Radar Cross Section8.306 m², Large (>1 m²)

Expand to show TLE details & history

TLE from 18 hours ago
0 THOR AGENA D R/B
1 00733U 64002A   25043.93666078  .00000558  00000-0  21754-3 0  9994
2 00733  99.1054  31.3694 0032326 314.5325  45.3217 14.33685889182444
Epoch: 2025-02-12T22:28Z
Definitive object data (Epoch: 2025-02-12T22:28:47.491Z)
Latitude-0.0001°
Longitude-89.04844°
Altitude766.123 km
Speed7.48 km/s
True Right ascension02h 05m 28s
True Declination0° 00' 00"
Sunlit
Object was in daylight at TLE epoch
Visualization TLE readout
Latitude-69.93019°
Longitude-62.38499°
Altitude784.404 km
Speed7.472 km/s
Apparent Right ascension06h 05m 27s
Apparent Declination-57° 52' 24"
Sunlit
Object is in daylight
Visualization observer readout
Local Sidereal Time19:09:39
Azimuth155.434° SSE
Elevation-69.292°
Doppler factor1
Orbital elements
Apogee altitude799.725 km
Perigee altitude753.468 km
Semi-major axis7,154.734 km
Eccentricity0.0032326
Inclination99.1054°
RAAN31.3694°
Arg. of periapsis314.5325°
True anomaly45.58585°
Mean anomaly45.3217°
Eccentric anomaly45.4537°
Mean motion3.58635 °/min
BSTAR0.00021754
Orbital period100.38 mins
Loading maneuver chart data...
Loading historical data...
Loading historical data...
Loading historical data...
Loading historical data...
Loading historical data...
Loading historical data...
Loading historical data...
Other satellites on launch #2 in the year 1964 (1964-01-19 UTC)

THOR AGENA D R/B Visibility forecast

Observer location: undefined°, undefined

Span
Click to sort rows by Start time (UTC) header in descending order
Start Az.
Max El. time (UTC)
Max El. Az.
Max El.
End time (UTC)
End Az.
8 mins2025-02-13 22:04:16.641Z119.602° SE2025-02-13 22:08:16.641Z59.804° ENE25.2°2025-02-13 22:12:16.641Z8.767° NNE
7 mins2025-02-13 23:44:16.641Z211.658° SW2025-02-13 23:47:16.641Z268.266° W28.949°2025-02-13 23:51:16.641Z324.612° NNW
8 mins2025-02-14 11:55:16.641Z17.97° NNE2025-02-14 11:59:16.641Z163.78° S43.618°2025-02-14 12:03:16.641Z191.131° SSW
|